Tracking 19293 objects as of 21-Nov-2018
HD Live streaming from Space Station
objects crossing your sky now

EXPLORER 11

Track EXPLORER 11 now!
10-day predictions
EXPLORER 11 is classified as:


NORAD ID: 107
Int'l Code: 1961-013A
Perigee: 474.2 km
Apogee: 1,267.8 km
Inclination: 28.8 °
Period: 102.2 minutes
Semi major axis: 7241 km
RCS: 0.4708 m2 (medium)
Launch date: April 27, 1961
Source: United States (US)
Launch site: AIR FORCE EASTERN TEST RANGE (AFETR)
aabbcc
Your satellite tracking list
Your tracking list is empty




NASA's NSSDC Master Catalog

Two Line Element Set (TLE):
1   107U 61013A   18324.90009777 +.00000341 +00000-0 +22869-4 0  9995
2   107 028.7894 185.6652 0547861 244.4481 109.8477 14.08689589885138
Source of the keplerian elements: AFSPC